Home   Weather   Lugo   Past weeks

Flag for Spain Past Weather in Lugo, Galicia, Spain — Yesterday and Last 2 Weeks

Now
61 °F

Rain. Partly cloudy.


Feels Like: 61 °F
Forecast: 51 / 67 °F
Wind: 12 mph from West

Location: Santiago / Labacolla

Current Time: Sep 24, 2016 at 11:00:24 PM

Latest Report: Sep 24, 2016 at 10:00 PM


Visibility: 4 mi

Pressure: 30.09 "Hg

Humidity: 100%

Dew Point: 61 °F

Location of LugoLocation

Past Weather in Lugo — Graph

°F

Lugo Temperature Yesterday

Maximum temperature yesterday: 75 °F (at 3:30 PM)
Minimum temperature yesterday: 54 °F (at 8:00 AM)
Average temperature yesterday: 62 °F

High & Low Weather Summary for the Past Weeks

 TemperatureHumidityPressure
High81 °F (Sep 11, 3:30 PM)100% (Sep 11, 12:00 AM)30.36 "Hg (Sep 11, 12:00 AM)
Low48 °F (Sep 21, 7:30 AM)45% (Sep 11, 4:00 PM)29.77 "Hg (Sep 13, 6:00 AM)
Average60 °F84%30.12 "Hg
* Reported Sep 9 9:00 PM — Sep 24 9:30 PM, Lugo, Weather by CustomWeather, © 2016

Note: Actual official high and low records may vary slightly from our data, if they occured in-between our weather recording intervals... More about our weather records

Advertising

Lugo Weather History for the Previous 24 Hours

Scroll right to see more
 ConditionsComfort  
Time TempWeatherWind HumidityBarometerVisibility
9:30 PM
Sat, Sep 24
61 °FHeavy rain. Partly cloudy.8 mph100%30.09 "Hg2 mi
9:00 PM61 °FRain. Overcast.17 mph100%30.07 "Hg3 mi
8:30 PM63 °FPartly cloudy.15 mph94%30.04 "Hg2 mi
8:02 PM63 °FDrizzle. Broken clouds.12 mph94%30.04 "Hg3 mi
7:30 PM64 °FBroken clouds.10 mph83%30.04 "HgN/A
7:00 PM66 °FPartly sunny.14 mph78%30.04 "HgN/A
6:30 PM66 °FPartly sunny.9 mph78%30.07 "HgN/A
6:00 PM66 °FBroken clouds.13 mph73%30.07 "HgN/A
5:30 PM66 °FBroken clouds.9 mph73%30.07 "HgN/A
5:00 PM66 °FBroken clouds.12 mph78%30.07 "HgN/A
4:30 PM64 °FBroken clouds.8 mph83%30.09 "HgN/A
4:00 PM64 °FBroken clouds.13 mph78%30.09 "HgN/A
3:30 PM64 °FBroken clouds.15 mph78%30.09 "HgN/A
3:00 PM64 °FBroken clouds.13 mph78%30.09 "HgN/A
2:30 PM64 °FPartly sunny.10 mph78%30.09 "HgN/A
2:00 PM63 °FPartly sunny.9 mph83%30.12 "HgN/A
1:30 PM64 °FPartly sunny.13 mph78%30.12 "HgN/A
1:00 PM63 °FBroken clouds.13 mph83%30.12 "HgN/A
12:30 PM63 °FPartly sunny.12 mph83%30.12 "HgN/A
12:00 PM61 °FPartly sunny.9 mph88%30.12 "HgN/A
11:30 AM61 °FPartly sunny.8 mph88%30.12 "HgN/A
11:00 AM61 °FPartly sunny.8 mph83%30.15 "HgN/A
10:30 AM59 °FScattered clouds.8 mph88%30.15 "HgN/A
10:00 AM59 °FScattered clouds.8 mph88%30.15 "HgN/A
9:30 AM59 °FScattered clouds.8 mph82%30.15 "HgN/A
9:00 AM57 °FBroken clouds.9 mph88%30.15 "HgN/A
8:30 AM59 °FBroken clouds.6 mph88%30.15 "HgN/A
8:00 AM59 °FPartly cloudy.5 mph88%30.15 "HgN/A
7:30 AM59 °FMostly cloudy.7 mph88%30.15 "HgN/A
7:00 AM59 °FMostly cloudy.6 mph88%30.15 "HgN/A
6:30 AM57 °FMostly cloudy.5 mph94%30.15 "HgN/A
6:00 AM57 °FLow clouds.6 mph94%30.15 "Hg6 mi
5:30 AM57 °FLow clouds.3 mph94%30.15 "Hg6 mi
5:00 AM55 °FLow clouds.2 mph100%30.15 "Hg4 mi
4:30 AM57 °FFog.1 mph94%30.15 "Hg3 mi
4:00 AM57 °FFog.2 mph94%30.15 "Hg2 mi
3:30 AM57 °FFog.3 mph94%30.18 "Hg2 mi
3:00 AM57 °FFog.3 mph100%30.18 "Hg2 mi
2:30 AM57 °FFog.2 mph94%30.18 "Hg1 mi
2:00 AM57 °FFog.3 mph100%30.18 "Hg2 mi
1:30 AM57 °FFog.2 mph100%30.21 "Hg2 mi
1:00 AM57 °FFog.3 mph94%30.21 "Hg3 mi
12:30 AM57 °FPassing clouds.1 mph88%30.21 "HgN/A
12:00 AM57 °FClear.1 mph88%30.21 "Hg10 mi
11:30 PM
Fri, Sep 23
57 °FClear.No wind88%30.21 "Hg10 mi
11:00 PM59 °FClear.2 mph82%30.21 "Hg10 mi
Weather by CustomWeather, © 2016

See weather overviewHow to use our weather pages